Date,TemperatureHighF,TemperatureAvgF,TemperatureLowF,DewpointHighF,DewpointAvgF,DewpointLowF,HumidityHigh,HumidityAvg,HumidityLow,PressureMaxIn,PressureMinIn,WindSpeedMaxMPH,WindSpeedAvgMPH,GustSpeedMaxMPH,PrecipitationSumIn
2013-1-1,27,21,17,18,16,12,84,78,65,30.47,30.31,12,1,0,0.00
2013-1-2,24,20,18,16,13,11,82,73,64,30.46,30.36,12,3,21,0.00
2013-1-3,31,24,18,13,11,10,70,59,45,30.37,30.20,15,4,25,0.00
2013-1-4,31,26,20,15,13,10,65,56,48,30.35,30.29,7,2,13,0.00
2013-1-5,32,25,18,16,12,8,67,56,43,30.32,30.14,14,3,20,0.00
2013-1-6,34,29,25,19,17,15,71,59,52,30.17,30.07,5,1,0,0.00
2013-1-7,29,27,24,25,22,17,90,82,64,30.10,30.00,6,1,0,0.00
2013-1-8,38,31,24,33,28,21,91,86,78,30.16,30.02,7,1,0,0.00
2013-1-9,44,39,33,35,31,26,85,74,65,30.03,29.71,16,5,28,0.00
2013-1-10,32,30,27,27,23,21,86,75,66,29.86,29.81,9,3,18,0.00
2013-1-11,27,23,20,24,16,13,88,73,68,30.14,29.85,18,5,21,0.00
2013-1-12,21,15,8,14,10,4,87,78,67,30.21,30.14,9,0,0,0.00
2013-1-13,24,18,13,16,12,9,87,76,65,30.30,30.20,7,0,13,0.00
2013-1-14,25,18,13,16,12,8,82,75,66,30.40,30.25,5,0,0,0.00
2013-1-15,27,17,11,16,11,7,85,77,62,30.54,30.40,2,0,0,0.00
2013-1-16,26,19,12,17,12,7,85,74,64,30.57,30.51,8,2,0,0.00
2013-1-17,28,22,17,17,14,10,77,69,60,30.54,30.39,9,4,18,0.00
2013-1-18,30,23,19,18,14,11,76,67,58,30.39,30.31,9,3,0,0.00
2013-1-19,31,21,15,18,12,8,77,68,58,30.44,30.35,10,2,16,0.00
2013-1-20,29,22,17,15,12,10,73,65,56,30.46,30.37,15,5,0,0.00
2013-1-21,35,24,17,32,13,10,72,63,51,30.39,30.22,16,4,20,0.00
2013-1-22,36,28,21,32,16,11,68,57,44,30.24,30.10,9,5,16,0.00
2013-1-23,40,36,31,29,19,15,69,49,41,30.10,29.96,23,6,29,0.00
2013-1-24,43,37,32,34,31,27,91,77,64,30.20,30.07,9,2,0,0.00
2013-1-25,42,39,38,38,35,33,91,86,77,30.14,29.92,5,1,0,0.00
2013-1-26,42,38,32,37,33,28,90,78,63,29.95,29.87,12,2,0,0.00
2013-1-27,37,33,28,32,27,24,89,77,68,29.99,29.94,9,1,0,0.00
2013-1-28,36,32,29,32,28,24,90,81,69,29.97,29.87,12,2,14,0.00
2013-1-29,40,36,34,35,32,30,91,85,76,30.19,29.87,12,3,23,0.00
2013-1-30,47,42,38,37,35,32,86,77,68,30.26,30.17,14,3,22,0.00
2013-1-31,49,44,40,39,37,34,86,76,61,30.28,30.20,7,2,0,0.00
2013-2-1,50,41,30,35,32,27,92,70,53,30.37,30.22,8,1,0,0.00
2013-2-2,45,34,26,33,28,23,92,79,60,30.41,30.24,8,1,0,0.00
2013-2-3,46,36,29,33,29,24,86,73,57,30.24,30.13,6,1,0,0.00
2013-2-4,43,37,32,32,30,28,83,75,65,30.14,29.97,5,1,0,0.00
2013-2-5,47,39,32,34,31,29,88,70,59,29.98,29.85,9,3,0,0.00
2013-2-6,45,39,32,32,28,26,84,65,48,30.08,29.93,20,4,20,0.00
2013-2-7,40,36,31,32,28,24,89,70,59,30.00,29.90,12,3,0,0.00
2013-2-8,38,33,29,32,25,22,77,70,63,30.06,29.99,16,9,22,0.00
2013-2-9,41,36,31,32,26,23,77,67,51,30.09,30.00,21,9,25,0.00
2013-2-10,44,37,31,32,27,23,78,65,48,30.18,30.08,21,7,20,0.00
2013-2-11,46,35,23,31,26,19,83,68,46,30.20,30.12,9,2,0,0.00
2013-2-12,47,41,38,36,32,30,78,70,55,30.29,30.20,12,3,0,0.00
2013-2-13,50,43,38,33,31,28,77,62,45,30.33,30.23,14,3,21,0.00
2013-2-14,49,42,34,34,31,27,75,64,48,30.44,30.32,7,1,0,0.00
2013-2-15,53,42,31,36,32,27,88,68,48,30.44,30.24,9,2,0,0.00
2013-2-16,54,42,36,36,32,26,82,67,44,30.24,30.00,18,4,27,0.00
2013-2-17,43,35,26,32,24,21,80,61,44,30.10,30.03,14,3,21,0.00
2013-2-18,42,34,23,25,22,20,87,65,47,30.06,29.72,18,4,24,0.00
2013-2-19,40,35,31,33,28,24,90,75,55,29.87,29.67,9,2,0,0.00
2013-2-20,42,35,29,32,25,20,81,67,41,29.96,29.86,9,3,0,0.00
2013-2-21,37,33,30,32,28,24,90,77,67,30.04,29.95,9,1,0,0.00
2013-2-22,39,34,31,33,30,27,93,85,74,30.04,29.78,13,1,29,0.00
2013-2-23,37,33,30,32,27,22,88,73,65,30.23,29.83,14,5,22,0.00
2013-2-24,40,33,28,27,24,21,82,68,49,30.29,30.06,7,2,0,0.00
2013-2-25,42,36,31,32,26,21,90,66,51,30.16,29.98,16,4,21,0.00
2013-2-26,42,35,30,32,22,19,75,56,45,30.28,30.16,12,2,0,0.00
2013-2-27,48,38,28,32,24,19,71,56,42,30.27,30.21,13,2,0,0.00
2013-2-28,41,37,34,36,32,26,91,82,57,30.39,30.22,5,1,0,0.00
2013-3-1,51,42,34,42,37,33,95,82,67,30.43,30.31,9,2,0,0.00
2013-3-2,54,48,42,41,39,36,86,71,57,30.31,30.00,9,3,0,0.00
2013-3-3,45,38,29,39,24,15,90,58,32,30.15,30.00,14,4,20,0.00
2013-3-4,45,33,20,28,20,15,89,63,32,30.22,30.02,16,4,15,0.00
2013-3-5,45,41,36,29,20,14,59,43,37,30.02,29.73,23,6,30,0.00
2013-3-6,49,41,32,37,31,27,89,69,48,29.92,29.60,20,4,22,0.00
2013-3-7,48,37,27,32,26,22,90,64,35,30.02,29.92,12,2,0,0.00
2013-3-8,50,38,26,30,26,21,82,63,34,30.09,29.92,16,5,0,0.00
2013-3-9,52,42,32,32,26,16,75,53,25,30.36,30.08,18,6,0,0.00
2013-3-10,55,41,27,39,26,16,90,60,22,30.38,30.24,10,2,18,0.00
2013-3-11,51,44,41,39,38,33,91,78,51,30.28,30.21,7,1,0,0.00
2013-3-12,62,48,38,42,38,32,90,70,34,30.21,30.08,12,2,17,0.00
2013-3-13,65,52,43,40,37,32,77,58,32,30.19,30.11,8,1,0,0.00
2013-3-14,66,52,40,40,36,32,80,57,34,30.15,30.02,13,3,0,0.00
2013-3-15,58,51,34,42,37,33,95,59,41,30.17,30.08,12,4,0,0.00
2013-3-16,53,44,34,38,34,25,87,67,40,30.10,29.82,14,4,27,0.00
2013-3-17,42,36,33,27,21,17,72,54,36,30.08,29.89,18,6,27,0.00
2013-3-18,48,39,33,26,23,18,77,55,29,30.15,30.03,14,5,24,0.00
2013-3-19,52,40,26,24,20,14,80,49,22,30.18,29.83,20,5,27,0.00
2013-3-20,55,45,34,42,35,19,85,70,26,29.94,29.60,24,8,39,0.00
2013-3-21,39,35,31,32,23,18,79,60,45,30.06,29.93,21,8,33,0.00
2013-3-22,37,32,28,32,23,19,81,67,51,30.20,30.02,16,6,27,0.00
2013-3-23,41,32,24,24,21,18,83,63,41,30.27,30.17,8,2,0,0.00
2013-3-24,48,34,22,24,21,18,85,60,34,30.23,30.08,7,1,0,0.00
2013-3-25,53,44,35,26,22,18,63,42,30,30.09,29.93,16,5,0,0.00
2013-3-26,58,47,38,38,32,25,69,55,42,29.96,29.89,16,2,0,0.00
2013-3-27,57,46,34,44,37,32,95,71,53,29.98,29.91,12,2,0,0.00
2013-3-28,59,48,40,45,41,37,89,78,49,30.09,29.97,14,2,0,0.00
2013-3-29,60,50,44,46,43,40,92,77,53,30.19,30.08,9,1,0,0.00
2013-3-30,66,49,35,42,35,-100,91,64,26,30.25,30.10,5,1,0,0.00
2013-3-31,70,51,34,42,35,30,86,57,27,30.10,29.89,18,4,0,0.00
2013-4-1,67,56,39,43,39,32,81,53,35,30.04,29.92,21,7,0,0.00
2013-4-2,65,54,46,42,39,37,72,57,38,30.13,30.04,14,6,20,0.00
2013-4-3,68,55,34,43,39,33,96,58,30,30.13,29.99,7,1,0,0.00
2013-4-4,65,51,43,45,40,36,88,67,40,30.00,29.76,15,2,32,0.00
2013-4-5,58,50,34,45,42,33,96,75,43,29.94,29.88,10,2,20,0.00
2013-4-6,54,46,42,42,40,37,91,80,54,29.96,29.85,16,3,22,0.00
2013-4-7,54,43,32,41,35,28,92,74,40,29.87,29.64,20,4,28,0.00
2013-4-8,46,40,33,34,31,29,89,71,55,30.14,29.79,14,6,20,0.00
2013-4-9,55,44,34,35,32,29,93,62,43,30.24,30.14,21,5,13,0.00
2013-4-10,61,47,38,47,36,30,80,67,49,30.21,29.96,18,4,30,0.00
2013-4-11,51,42,33,33,30,27,93,63,47,30.15,30.07,14,3,0,0.00
2013-4-12,60,45,29,43,32,25,86,62,25,30.08,29.69,17,4,27,0.00
2013-4-13,45,40,34,38,26,18,86,58,33,29.92,29.70,25,7,36,0.00
2013-4-14,44,38,32,32,26,23,74,60,45,29.93,29.80,12,3,24,0.00
2013-4-15,44,38,31,32,28,24,77,66,47,29.97,29.81,13,6,16,0.00
2013-4-16,43,37,32,32,24,19,75,58,44,30.22,29.97,17,7,23,0.00
2013-4-17,50,41,32,32,18,11,58,38,22,30.31,30.22,12,5,18,0.00
2013-4-18,55,45,34,39,29,16,95,53,38,30.33,30.20,7,2,0,0.00
2013-4-19,49,47,45,45,42,39,89,82,71,30.20,30.01,13,3,27,0.00
2013-4-20,57,48,34,39,36,33,95,65,46,30.17,30.06,18,5,29,0.00
2013-4-21,54,46,34,39,35,32,93,66,46,30.17,30.03,14,4,18,0.00
2013-4-22,50,43,34,35,28,21,81,57,39,30.34,30.17,16,7,21,0.00
2013-4-23,55,42,28,27,22,16,75,48,21,30.33,30.13,7,2,0,0.00
2013-4-24,65,48,32,33,27,21,67,44,25,30.28,30.01,9,2,0,0.00
2013-4-25,67,54,39,37,32,26,62,44,27,30.09,29.98,12,3,0,0.00
2013-4-26,75,59,41,44,38,32,79,48,22,30.21,30.09,12,2,0,0.00
2013-4-27,73,60,34,40,33,27,94,37,19,30.21,30.06,14,4,22,0.00
2013-4-28,63,54,34,43,37,32,95,52,31,30.13,29.98,12,3,17,0.00
2013-4-29,55,51,39,43,32,17,82,50,24,30.00,29.87,18,6,31,0.00
2013-4-30,47,40,34,27,23,19,62,51,33,30.31,30.00,14,5,18,0.00
2013-5-1,59,44,28,29,23,13,79,48,17,30.52,30.30,8,2,0,0.00
2013-5-2,69,52,32,34,27,22,76,42,16,30.52,30.23,14,4,0,0.00
2013-5-3,67,58,46,40,35,31,55,42,30,30.24,30.14,14,5,20,0.00
2013-5-4,69,58,44,39,36,32,72,46,26,30.16,29.97,16,5,21,0.00
2013-5-5,74,59,42,41,36,32,72,44,21,29.97,29.82,8,1,0,0.00
2013-5-6,80,63,45,48,41,32,74,47,17,29.91,29.77,10,2,0,0.00
2013-5-7,81,66,49,49,42,36,73,45,20,29.92,29.81,12,4,14,0.00
2013-5-8,81,67,51,50,45,42,70,46,28,30.03,29.91,12,3,0,0.00
2013-5-9,84,69,51,52,45,40,77,45,21,30.13,30.02,12,2,18,0.00
2013-5-10,87,67,50,50,40,-100,71,42,10,30.22,30.10,9,1,0,0.00
2013-5-11,86,71,57,54,46,-100,66,44,20,30.18,30.04,12,1,0,0.00
2013-5-12,82,69,58,58,52,48,74,56,39,30.09,29.99,13,2,21,0.00
2013-6-11,67,62,52,43,38,35,53,41,33,30.06,29.91,13,6,16,0.00
2013-6-12,66,56,47,40,36,32,64,48,32,30.08,29.98,13,6,23,0.00
2013-6-13,63,54,46,38,37,34,68,52,36,30.14,30.04,14,7,23,0.00
2013-6-14,72,57,34,43,41,33,96,57,31,30.19,30.03,12,2,17,0.00
2013-6-15,81,63,43,45,39,32,79,46,18,30.06,29.91,7,1,0,0.00
2013-6-16,87,70,55,49,42,36,62,37,16,30.04,29.92,16,3,22,0.00
2013-6-17,83,70,59,49,46,42,55,42,27,30.06,29.83,16,6,29,0.00
2013-6-18,64,57,52,49,46,44,77,66,52,29.95,29.85,17,10,28,0.00
2013-6-19,53,47,43,44,42,38,92,83,70,30.00,29.82,15,5,24,0.00
2013-6-20,64,50,45,44,41,35,93,72,33,30.03,29.97,14,2,16,0.00
2013-6-22,71,64,53,49,45,40,73,51,40,30.10,29.93,5,2,0,0.00
2013-6-23,73,60,49,52,48,44,86,66,40,29.93,29.67,23,3,29,0.00
2013-6-24,61,57,49,54,52,47,91,83,75,29.80,29.68,16,2,0,0.00
2013-6-25,65,57,49,55,52,47,93,82,63,29.93,29.80,17,2,0,0.00
2013-6-26,70,61,55,59,56,52,92,82,59,30.13,29.92,14,1,0,0.00
2013-6-27,86,67,53,63,57,51,94,73,39,30.19,30.11,20,4,0,0.00
2013-6-28,91,76,61,64,59,55,81,57,33,30.23,30.05,21,4,0,0.00
2013-6-29,87,78,69,64,61,57,71,55,43,30.09,29.99,16,7,18,0.00
2013-6-30,93,80,64,63,58,52,80,50,25,30.09,29.96,12,2,0,0.00
2013-7-1,99,83,66,67,61,56,74,47,31,30.03,29.93,21,4,0,0.00
2013-7-2,98,88,72,65,60,52,70,39,21,30.07,29.98,18,5,0,0.00
2013-7-3,89,80,71,56,50,42,45,34,22,30.09,29.97,14,5,20,0.00
2013-7-4,82,75,62,43,39,33,42,27,19,30.02,29.89,13,5,0,0.00
2013-7-5,77,67,56,48,43,39,58,42,29,29.93,29.86,14,5,20,0.00
2013-7-6,82,68,51,49,45,40,69,44,27,29.94,29.82,17,4,0,0.00
2013-7-7,87,75,56,51,48,43,71,40,26,29.92,29.82,12,4,0,0.00
2013-7-8,84,70,62,48,43,-100,56,39,22,30.08,29.88,20,6,28,0.00
2013-7-9,90,73,53,50,46,42,67,40,20,30.15,29.99,7,1,0,0.00
2013-7-10,89,77,61,53,43,-100,59,32,21,30.02,29.86,12,5,14,0.00
2013-7-11,81,72,61,44,37,30,38,28,19,29.96,29.88,14,4,0,0.00
2013-7-12,79,69,57,39,34,27,43,28,18,30.02,29.88,14,6,0,0.00
2013-7-13,80,67,53,41,37,34,54,34,20,30.12,30.02,17,6,0,0.00
2013-7-14,87,73,53,46,41,33,63,34,18,30.13,29.95,17,3,0,0.00
2013-7-15,85,76,59,43,40,35,43,27,20,30.00,29.90,21,8,20,0.00
2013-7-16,92,76,66,54,46,38,59,34,23,29.95,29.80,25,10,36,0.00
2013-7-17,88,77,61,56,49,41,75,41,20,30.10,29.91,18,6,15,0.00
2013-7-18,92,81,58,47,42,38,55,27,16,30.16,30.03,12,4,0,0.00
2013-7-19,93,78,60,48,42,37,51,29,15,30.09,29.97,12,3,18,0.00
2013-7-20,93,75,57,50,39,-100,56,30,11,30.02,29.88,7,1,0,0.00
2013-7-21,93,77,55,44,38,28,54,27,9,29.94,29.84,8,2,0,0.00
2013-7-22,91,76,55,42,38,30,55,27,11,30.00,29.89,14,2,18,0.00
2013-7-23,94,76,54,47,40,35,59,31,12,30.08,29.94,7,1,0,0.00
2013-7-24,96,83,61,47,40,35,45,24,13,30.04,29.95,14,4,0,0.00
2013-7-25,95,80,62,49,40,32,49,26,11,30.07,30.00,7,2,18,0.00
2013-7-26,95,72,57,43,36,27,49,28,9,30.13,30.01,14,2,0,0.00
2013-7-27,85,76,67,43,35,28,37,23,13,30.08,29.92,12,5,0,0.00
2013-7-28,83,73,57,38,33,28,42,23,14,29.95,29.86,10,4,0,0.00
2013-7-29,85,69,50,41,36,30,57,32,13,29.97,29.89,16,4,0,0.00
2013-7-30,88,79,67,42,39,33,34,23,17,30.08,29.96,17,4,0,0.00
2013-7-31,85,73,59,46,42,40,55,34,20,30.09,29.96,18,3,21,0.00
2013-8-1,79,66,57,56,50,42,85,58,31,30.02,29.92,21,6,25,0.00
2013-8-2,76,65,55,53,49,46,83,58,35,30.07,29.99,12,3,0,0.00
2013-8-3,80,67,52,51,48,44,81,53,29,30.11,30.01,8,1,0,0.00
2013-8-4,87,71,53,51,45,42,67,42,20,30.09,29.94,8,1,0,0.00
2013-8-5,87,76,61,50,47,44,57,36,22,30.01,29.93,10,2,0,0.00
2013-8-6,91,74,55,49,45,40,69,39,17,30.05,29.91,17,2,0,0.00
2013-8-7,91,75,58,49,40,28,59,33,10,30.00,29.90,9,2,0,0.00
2013-8-8,89,77,68,49,44,31,43,31,17,29.99,29.89,18,10,17,0.00
2013-8-9,92,80,72,51,48,44,40,32,19,29.95,29.80,21,9,27,0.00
2013-8-10,85,73,64,60,52,49,84,48,32,29.98,29.89,21,8,20,0.00
2013-8-11,83,72,62,56,52,49,67,50,35,30.04,29.94,21,8,18,0.00
2013-8-17,85,63,83,54,15,-100,36,26,33,30.03,29.97,9,7,0,0.00
2013-8-18,87,77,64,50,47,45,51,36,23,30.08,30.01,7,3,0,0.00
2013-8-19,87,17,87,45,-71,-100,32,22,23,30.07,29.99,7,5,0,0.00
2013-8-20,84,62,63,46,14,-100,53,34,20,30.08,29.99,12,7,0,0.00
2013-8-21,89,72,58,43,43,41,51,36,19,30.06,29.96,2,1,0,0.00
2013-8-22,80,69,58,56,47,40,74,48,25,29.99,29.87,10,2,0,0.00
2013-8-23,82,74,56,58,48,41,88,48,23,29.93,29.86,9,6,0,0.00
2013-9-13,87,79,63,55,51,48,69,40,25,29.95,29.82,7,3,0,0.00
2013-9-14,89,60,59,52,28,-100,68,44,27,29.90,29.80,2,1,0,0.00
2013-9-15,84,74,61,52,51,51,69,47,32,29.86,29.69,12,5,24,0.00
2013-9-16,71,64,57,50,48,47,69,58,44,29.92,29.87,12,4,0,0.00
2013-9-17,58,56,54,49,46,44,79,70,59,29.86,29.78,17,13,0,0.00
2013-9-18,52,51,50,42,41,41,74,70,66,29.96,29.91,7,3,14,0.00
2013-9-19,71,65,38,39,34,31,88,36,25,30.11,29.95,10,4,0,0.00
2013-10-20,66,52,37,38,35,31,78,55,35,30.14,30.10,16,6,0,0.00
2013-10-21,66,52,38,43,39,34,82,62,41,30.21,30.13,2,0,0,0.00
2013-10-22,64,47,38,45,39,35,91,76,48,30.20,30.09,1,0,0,0.00
2013-10-23,65,48,36,45,40,34,91,75,48,30.15,30.06,2,0,0,0.00
2013-10-24,59,45,36,44,38,34,91,79,57,30.11,30.05,0,0,0,0.00
2013-10-25,43,40,38,38,36,35,89,86,83,30.17,30.13,0,0,0,0.00
2013-10-26,46,40,35,38,36,33,91,82,72,30.28,30.25,0,0,0,0.00
2013-11-5,33,33,33,29,29,29,83,83,83,30.16,30.16,1,1,0,0.00
2013-11-6,42,37,35,37,34,32,92,89,82,30.29,30.21,1,0,0,0.00
2013-11-7,49,46,44,42,40,38,87,80,76,30.17,29.85,15,6,0,0.00
2013-11-8,47,44,39,33,33,32,77,64,57,30.09,30.00,7,3,0,0.00
2013-11-9,51,30,32,35,5,-100,90,63,52,30.13,30.06,7,2,0,0.00
2013-11-10,60,54,45,38,36,32,67,48,39,30.16,30.07,5,2,0,0.00
2013-11-11,54,44,36,41,36,32,87,74,59,30.26,30.16,2,0,0,0.00
2013-12-14,37,29,32,29,10,-100,87,82,71,30.41,30.35,3,1,0,0.00
2013-12-15,43,37,32,30,28,27,81,70,59,30.35,30.26,5,1,0,0.00
2013-12-16,27,26,25,23,22,22,87,86,86,30.36,30.36,0,0,0,0.00
2013-12-17,41,38,34,26,26,25,69,60,53,30.29,30.11,5,5,0,0.00
2013-12-18,38,36,32,31,28,26,77,71,65,30.01,29.87,1,0,0,0.00
2013-12-19,27,25,22,20,13,8,73,60,51,30.12,29.98,22,10,22,0.00
2013-12-20,24,21,18,21,15,11,87,76,62,30.01,29.80,0,0,0,0.00